| time (UTC) | temp C | wind direction | speed KPH | gust KPH | rain 1hr cm | rain 24hr cm | rain mn cm | humidity % | barometer mb |
| 20260505124551 | 21 | 255 | 9.7 | 25.7 | 0.00 | 0.00 | 0.00 | 55 | 1001.5 |
| 20260505123053 | 21 | 243 | 8.0 | 24.1 | 0.00 | 0.00 | 0.00 | 56 | 1001.4 |
| 20260505123003 | 21 | 196 | 9.7 | 24.1 | 0.00 | 0.00 | 0.00 | 57 | 999.9 |
| 20260505121548 | 20 | 215 | 8.0 | 20.9 | 0.00 | 0.00 | 0.00 | 57 | 1001.3 |
| 20260505114557 | 19 | 209 | 8.0 | 24.1 | 0.00 | 0.00 | 0.00 | 59 | 1001.5 |
| 20260505113100 | 19 | 259 | 8.0 | 22.5 | 0.00 | 0.00 | 0.00 | 60 | 1001.3 |
| 20260505111551 | 19 | 252 | 9.7 | 17.7 | 0.00 | 0.00 | 0.00 | 60 | 1001.1 |
| 20260505102004 | 18 | 186 | 6.4 | 20.9 | 0.00 | 0.00 | 0.00 | 64 | 999.3 |
| 20260505101554 | 18 | 218 | 4.8 | 14.5 | 0.00 | 0.00 | 0.00 | 64 | 1000.8 |
| 20260505100046 | 17 | 187 | 6.4 | 17.7 | 0.00 | 0.00 | 0.00 | 65 | 1000.6 |
| 20260505100003 | 18 | 207 | 6.4 | 14.5 | 0.00 | 0.00 | 0.00 | 66 | 999.1 |
| 20260505095004 | 17 | 198 | 4.8 | 19.3 | 0.00 | 0.00 | 0.00 | 66 | 999.0 |
| 20260505094547 | 17 | 219 | 4.8 | 17.7 | 0.00 | 0.00 | 0.00 | 66 | 1000.5 |
| 20260505093051 | 17 | 228 | 4.8 | 14.5 | 0.00 | 0.00 | 0.00 | 68 | 1000.5 |
| 20260505093003 | 17 | 212 | 6.4 | 14.5 | 0.00 | 0.00 | 0.00 | 69 | 999.0 |
| 20260505091550 | 16 | 222 | 4.8 | 9.7 | 0.00 | 0.00 | 0.00 | 72 | 1000.7 |
| 20260505090056 | 16 | 178 | 3.2 | 9.7 | 0.00 | 0.00 | 0.00 | 74 | 1001.0 |
| 20260505084547 | 16 | 190 | 3.2 | 9.7 | 0.00 | 0.00 | 0.00 | 74 | 1001.3 |
| 20260505083101 | 15 | 178 | 1.6 | 6.4 | 0.00 | 0.00 | 0.00 | 78 | 1001.1 |
| 20260505081551 | 15 | 161 | 1.6 | 3.2 | 0.00 | 0.00 | 0.00 | 78 | 1001.3 |
| 20260505080047 | 16 | 0 | 0.0 | 1.6 | 0.00 | 0.00 | 0.00 | 75 | 1001.5 |
| 20260505074548 | 16 | 0 | 0.0 | 3.2 | 0.00 | 0.00 | 0.00 | 73 | 1001.6 |
| 20260505073150 | 17 | 234 | 1.6 | 4.8 | 0.00 | 0.00 | 0.00 | 70 | 1001.5 |
| 20260505073003 | 17 | 213 | 3.2 | 4.8 | 0.00 | 0.00 | 0.00 | 71 | 1000.1 |
| 20260505072504 | 17 | 200 | 3.2 | 4.8 | 0.00 | 0.00 | 0.00 | 71 | 1000.1 |
| 20260505072003 | 17 | 217 | 4.8 | 12.9 | 0.00 | 0.00 | 0.00 | 71 | 1000.1 |
| 20260505071549 | 17 | 222 | 4.8 | 16.1 | 0.00 | 0.00 | 0.00 | 71 | 1001.5 |
| 20260505071504 | 17 | 222 | 4.8 | 11.3 | 0.00 | 0.00 | 0.00 | 71 | 1000.2 |
| 20260505071003 | 17 | 189 | 4.8 | 16.1 | 0.00 | 0.00 | 0.00 | 71 | 1000.2 |
| 20260505070504 | 17 | 223 | 9.7 | 16.1 | 0.00 | 0.00 | 0.00 | 69 | 1000.5 |
| 20260505070003 | 18 | 217 | 8.0 | 20.9 | 0.00 | 0.00 | 0.00 | 68 | 1000.6 |
| 20260505065504 | 18 | 199 | 11.3 | 22.5 | 0.00 | 0.00 | 0.00 | 66 | 1000.6 |
| 20260505065004 | 18 | 213 | 9.7 | 19.3 | 0.00 | 0.00 | 0.00 | 65 | 1000.7 |
| 20260505064555 | 18 | 206 | 8.0 | 19.3 | 0.00 | 0.00 | 0.00 | 63 | 1002.1 |
| 20260505064503 | 18 | 223 | 9.7 | 19.3 | 0.00 | 0.00 | 0.00 | 63 | 1000.5 |
| 20260505064004 | 18 | 213 | 6.4 | 11.3 | 0.00 | 0.00 | 0.00 | 63 | 1000.5 |
| 20260505063503 | 18 | 199 | 4.8 | 9.7 | 0.00 | 0.00 | 0.00 | 64 | 1000.5 |
| 20260505063048 | 17 | 223 | 3.2 | 12.9 | 0.00 | 0.00 | 0.00 | 63 | 1001.7 |
| 20260505063004 | 18 | 233 | 3.2 | 12.9 | 0.00 | 0.00 | 0.00 | 63 | 1000.4 |
| 20260505062503 | 18 | 175 | 6.4 | 12.9 | 0.00 | 0.00 | 0.00 | 64 | 1000.3 |
| 20260505062003 | 18 | 214 | 4.8 | 12.9 | 0.00 | 0.00 | 0.00 | 64 | 1000.3 |
| 20260505061610 | 17 | 201 | 4.8 | 14.5 | 0.00 | 0.00 | 0.00 | 63 | 1001.7 |
| 20260505061004 | 18 | 208 | 4.8 | 9.7 | 0.00 | 0.00 | 0.00 | 63 | 1000.4 |
| 20260505060056 | 18 | 192 | 4.8 | 12.9 | 0.00 | 0.00 | 0.00 | 62 | 1001.7 |
| 20260505060003 | 18 | 214 | 4.8 | 12.9 | 0.00 | 0.00 | 0.00 | 62 | 1000.4 |
| 20260505055503 | 18 | 201 | 8.0 | 11.3 | 0.00 | 0.00 | 0.00 | 62 | 1000.3 |
| 20260505055004 | 18 | 183 | 4.8 | 11.3 | 0.00 | 0.00 | 0.00 | 62 | 1000.3 |
| 20260505054554 | 18 | 186 | 6.4 | 12.9 | 0.00 | 0.00 | 0.00 | 61 | 1001.7 |
| 20260505054504 | 18 | 201 | 6.4 | 12.9 | 0.00 | 0.00 | 0.00 | 61 | 1000.3 |
| 20260505054003 | 18 | 198 | 8.0 | 12.9 | 0.00 | 0.00 | 0.00 | 61 | 1000.3 |
| 20260505053504 | 18 | 194 | 4.8 | 12.9 | 0.00 | 0.00 | 0.00 | 61 | 1000.4 |
| 20260505053052 | 18 | 210 | 4.8 | 14.5 | 0.00 | 0.00 | 0.00 | 60 | 1001.8 |
| 20260505053004 | 18 | 185 | 4.8 | 12.9 | 0.00 | 0.00 | 0.00 | 61 | 1000.4 |
| 20260505052503 | 18 | 206 | 4.8 | 14.5 | 0.00 | 0.00 | 0.00 | 60 | 1000.4 |
| 20260505051550 | 18 | 212 | 8.0 | 17.7 | 0.00 | 0.00 | 0.00 | 59 | 1001.6 |
| 20260505051003 | 18 | 200 | 4.8 | 16.1 | 0.00 | 0.00 | 0.00 | 60 | 1000.3 |
| 20260505041556 | 18 | 207 | 4.8 | 11.3 | 0.00 | 0.00 | 0.00 | 55 | 1002.1 |
| 20260505041505 | 18 | 205 | 4.8 | 11.3 | 0.00 | 0.00 | 0.00 | 55 | 1000.7 |
| 20260505041003 | 18 | 185 | 4.8 | 11.3 | 0.00 | 0.00 | 0.00 | 55 | 1000.6 |
| 20260505040504 | 18 | 210 | 4.8 | 9.7 | 0.00 | 0.00 | 0.00 | 55 | 1000.6 |
| 20260505040100 | 18 | 175 | 4.8 | 16.1 | 0.00 | 0.00 | 0.00 | 54 | 1002.0 |
| 20260505040004 | 18 | 205 | 6.4 | 11.3 | 0.00 | 0.00 | 0.00 | 55 | 1000.6 |
| 20260505035503 | 18 | 188 | 6.4 | 16.1 | 0.00 | 0.00 | 0.00 | 55 | 1000.8 |
| 20260505034547 | 18 | 193 | 4.8 | 19.3 | 0.00 | 0.00 | 0.00 | 53 | 1002.2 |
| 20260505034504 | 18 | 199 | 6.4 | 11.3 | 0.00 | 0.00 | 0.00 | 54 | 1000.9 |
| 20260505034004 | 18 | 211 | 9.7 | 19.3 | 0.00 | 0.00 | 0.00 | 54 | 1000.9 |
| 20260505033503 | 18 | 213 | 6.4 | 12.9 | 0.00 | 0.00 | 0.00 | 55 | 1001.0 |
| 20260505033054 | 17 | 225 | 6.4 | 20.9 | 0.00 | 0.00 | 0.00 | 54 | 1002.2 |
| 20260505033004 | 17 | 208 | 8.0 | 12.9 | 0.00 | 0.00 | 0.00 | 55 | 1001.0 |
| 20260505032504 | 16 | 194 | 9.7 | 20.9 | 0.00 | 0.00 | 0.00 | 56 | 1000.9 |
| 20260505032003 | 14 | 205 | 8.0 | 19.3 | 0.00 | 0.00 | 0.00 | 62 | 1000.9 |
| 20260505031553 | 13 | 245 | 3.2 | 6.4 | 0.00 | 0.00 | 0.00 | 67 | 1002.3 |
| 20260505031004 | 13 | 211 | 1.6 | 3.2 | 0.00 | 0.00 | 0.00 | 68 | 1000.6 |
| 20260505030504 | 13 | 204 | 1.6 | 3.2 | 0.00 | 0.00 | 0.00 | 68 | 1000.6 |
| 20260505030049 | 13 | 195 | 1.6 | 3.2 | 0.00 | 0.00 | 0.00 | 68 | 1002.1 |
| 20260505030003 | 13 | 196 | 1.6 | 3.2 | 0.00 | 0.00 | 0.00 | 68 | 1000.7 |
| 20260505025504 | 13 | 131 | 1.6 | 3.2 | 0.00 | 0.00 | 0.00 | 69 | 1000.6 |
| 20260505025004 | 13 | 181 | 3.2 | 3.2 | 0.00 | 0.00 | 0.00 | 68 | 1000.7 |
| 20260505024547 | 13 | 197 | 1.6 | 3.2 | 0.00 | 0.00 | 0.00 | 68 | 1002.1 |
| 20260505024504 | 13 | 199 | 1.6 | 3.2 | 0.00 | 0.00 | 0.00 | 68 | 1000.7 |
| 20260505024004 | 13 | 181 | 1.6 | 3.2 | 0.00 | 0.00 | 0.00 | 67 | 1000.6 |
| 20260505023503 | 14 | 159 | 0.0 | 1.6 | 0.00 | 0.00 | 0.00 | 66 | 1000.6 |
| 20260505023048 | 13 | 0 | 0.0 | 1.6 | 0.00 | 0.00 | 0.00 | 65 | 1002.0 |
| 20260505023004 | 14 | 121 | 0.0 | 1.6 | 0.00 | 0.00 | 0.00 | 66 | 1000.6 |
| 20260505022503 | 14 | 122 | 0.0 | 1.6 | 0.00 | 0.00 | 0.00 | 65 | 1000.7 |
| 20260505022003 | 14 | 89 | 0.0 | 1.6 | 0.00 | 0.00 | 0.00 | 64 | 1000.8 |
| 20260505021550 | 14 | 178 | 0.0 | 1.6 | 0.00 | 0.00 | 0.00 | 63 | 1002.2 |
| 20260505021504 | 15 | 173 | 0.0 | 1.6 | 0.00 | 0.00 | 0.00 | 64 | 1000.9 |
| 20260505020503 | 15 | 129 | 0.0 | 1.6 | 0.00 | 0.00 | 0.00 | 62 | 1001.0 |
| 20260505020054 | 15 | 0 | 0.0 | 1.6 | 0.00 | 0.00 | 0.00 | 62 | 1002.4 |
| 20260505020004 | 15 | 116 | 0.0 | 1.6 | 0.00 | 0.00 | 0.00 | 62 | 1001.1 |
| 20260505015503 | 15 | 90 | 1.6 | 1.6 | 0.00 | 0.00 | 0.00 | 61 | 1001.1 |
| 20260505015004 | 15 | 120 | 0.0 | 1.6 | 0.00 | 0.00 | 0.00 | 59 | 1001.1 |
| 20260505014550 | 15 | 0 | 0.0 | 1.6 | 0.00 | 0.00 | 0.00 | 58 | 1002.5 |
| 20260505014504 | 16 | 129 | 0.0 | 0.0 | 0.00 | 0.00 | 0.00 | 59 | 1001.2 |
| 20260505014003 | 16 | 195 | 1.6 | 1.6 | 0.00 | 0.00 | 0.00 | 58 | 1001.1 |
| 20260505013503 | 16 | 189 | 0.0 | 1.6 | 0.00 | 0.00 | 0.00 | 57 | 1001.0 |
| 20260505013050 | 16 | 0 | 0.0 | 3.2 | 0.00 | 0.00 | 0.00 | 56 | 1002.4 |
| 20260505013004 | 16 | 200 | 0.0 | 1.6 | 0.00 | 0.00 | 0.00 | 56 | 1001.0 |
| 20260505012004 | 17 | 119 | 0.0 | 1.6 | 0.00 | 0.00 | 0.00 | 54 | 1000.9 |
| 20260505011548 | 17 | 0 | 0.0 | 1.6 | 0.00 | 0.00 | 0.00 | 52 | 1002.2 |
| 20260505011004 | 17 | 152 | 0.0 | 1.6 | 0.00 | 0.00 | 0.00 | 51 | 1000.9 |
| 20260505010503 | 18 | 175 | 0.0 | 1.6 | 0.00 | 0.00 | 0.00 | 48 | 1000.8 |
| 20260505010058 | 18 | 0 | 0.0 | 1.6 | 0.00 | 0.00 | 0.00 | 48 | 1002.1 |
| 20260505010003 | 18 | 129 | 1.6 | 1.6 | 0.00 | 0.00 | 0.00 | 48 | 1000.7 |
| 20260505005504 | 18 | 136 | 0.0 | 1.6 | 0.00 | 0.00 | 0.00 | 46 | 1000.7 |
| 20260505005004 | 19 | 135 | 0.0 | 1.6 | 0.00 | 0.00 | 0.00 | 45 | 1000.6 |
| 20260505004548 | 19 | 0 | 0.0 | 3.2 | 0.00 | 0.00 | 0.00 | 43 | 1002.0 |
| 20260505004503 | 20 | 133 | 0.0 | 1.6 | 0.00 | 0.00 | 0.00 | 44 | 1000.6 |
| 20260505004003 | 20 | 103 | 1.6 | 3.2 | 0.00 | 0.00 | 0.00 | 43 | 1000.6 |
| 20260505003504 | 21 | 114 | 1.6 | 3.2 | 0.00 | 0.00 | 0.00 | 42 | 1000.7 |
| 20260505003054 | 21 | 135 | 0.0 | 1.6 | 0.00 | 0.00 | 0.00 | 39 | 1002.1 |
| 20260505003004 | 21 | 124 | 0.0 | 1.6 | 0.00 | 0.00 | 0.00 | 40 | 1000.7 |
| 20260505002506 | 21 | 169 | 0.0 | 1.6 | 0.00 | 0.00 | 0.00 | 37 | 1000.6 |
| 20260505001552 | 21 | 0 | 0.0 | 4.8 | 0.00 | 0.00 | 0.00 | 36 | 1002.1 |
| 20260505001504 | 21 | 235 | 0.0 | 3.2 | 0.00 | 0.00 | 0.00 | 37 | 1000.7 |
| 20260505000503 | 22 | 252 | 1.6 | 4.8 | 0.00 | 0.00 | 0.00 | 36 | 1000.6 |
| 20260505000100 | 22 | 236 | 1.6 | 4.8 | 0.00 | 0.00 | 0.00 | 34 | 1001.9 |
| 20260505000004 | 22 | 225 | 1.6 | 4.8 | 0.00 | 0.00 | 0.00 | 35 | 1000.6 |
| 20260504235504 | 22 | 240 | 1.6 | 4.8 | 0.00 | 0.00 | 0.00 | 35 | 1000.6 |
| 20260504235004 | 22 | 294 | 1.6 | 8.0 | 0.00 | 0.00 | 0.00 | 34 | 1000.6 |
| 20260504234604 | 22 | 235 | 1.6 | 4.8 | 0.00 | 0.00 | 0.00 | 34 | 1001.8 |
| 20260504234504 | 22 | 290 | 3.2 | 4.8 | 0.00 | 0.00 | 0.00 | 35 | 1000.5 |
| 20260504233503 | 23 | 202 | 3.2 | 8.0 | 0.00 | 0.00 | 0.00 | 33 | 1000.4 |
| 20260504233051 | 23 | 196 | 1.6 | 8.0 | 0.00 | 0.00 | 0.00 | 32 | 1001.7 |
| 20260504233004 | 23 | 201 | 3.2 | 4.8 | 0.00 | 0.00 | 0.00 | 33 | 1000.4 |
| 20260504232504 | 23 | 217 | 1.6 | 8.0 | 0.00 | 0.00 | 0.00 | 33 | 1000.4 |
| 20260504231545 | 23 | 227 | 4.8 | 11.3 | 0.00 | 0.00 | 0.00 | 32 | 1001.7 |
| 20260504231503 | 23 | 202 | 4.8 | 11.3 | 0.00 | 0.00 | 0.00 | 32 | 1000.4 |
| 20260504231004 | 23 | 221 | 1.6 | 4.8 | 0.00 | 0.00 | 0.00 | 32 | 1000.5 |
| 20260504230504 | 23 | 258 | 3.2 | 9.7 | 0.00 | 0.00 | 0.00 | 31 | 1000.4 |
| 20260504230054 | 23 | 145 | 3.2 | 9.7 | 0.00 | 0.00 | 0.00 | 31 | 1001.7 |
| 20260504230003 | 23 | 252 | 4.8 | 8.0 | 0.00 | 0.00 | 0.00 | 31 | 1000.4 |
| 20260504225004 | 23 | 211 | 6.4 | 11.3 | 0.00 | 0.00 | 0.00 | 31 | 1000.3 |
| 20260504224553 | 23 | 208 | 3.2 | 16.1 | 0.00 | 0.00 | 0.00 | 31 | 1001.6 |
| 20260504224503 | 23 | 205 | 4.8 | 9.7 | 0.00 | 0.00 | 0.00 | 31 | 1000.3 |
| 20260504224004 | 24 | 229 | 9.7 | 16.1 | 0.00 | 0.00 | 0.00 | 30 | 1000.3 |
| 20260504223503 | 24 | 212 | 9.7 | 19.3 | 0.00 | 0.00 | 0.00 | 29 | 1000.4 |
| 20260504223050 | 23 | 233 | 8.0 | 17.7 | 0.00 | 0.00 | 0.00 | 30 | 1001.6 |
| 20260504223003 | 24 | 229 | 8.0 | 19.3 | 0.00 | 0.00 | 0.00 | 29 | 1000.3 |
| 20260504222504 | 24 | 221 | 9.7 | 16.1 | 0.00 | 0.00 | 0.00 | 30 | 1000.3 |
| 20260504222004 | 24 | 221 | 9.7 | 16.1 | 0.00 | 0.00 | 0.00 | 29 | 1000.3 |
| 20260504221549 | 24 | 235 | 11.3 | 29.0 | 0.00 | 0.00 | 0.00 | 27 | 1001.6 |
| 20260504221504 | 24 | 236 | 9.7 | 29.0 | 0.00 | 0.00 | 0.00 | 29 | 1000.3 |
| 20260504221003 | 25 | 224 | 8.0 | 16.1 | 0.00 | 0.00 | 0.00 | 29 | 1000.3 |
| 20260504220503 | 25 | 226 | 6.4 | 19.3 | 0.00 | 0.00 | 0.00 | 30 | 1000.3 |
| 20260504220101 | 24 | 161 | 6.4 | 14.5 | 0.00 | 0.00 | 0.00 | 29 | 1001.7 |
| 20260504220004 | 25 | 207 | 8.0 | 14.5 | 0.00 | 0.00 | 0.00 | 29 | 1000.3 |
| 20260504215504 | 25 | 242 | 6.4 | 14.5 | 0.00 | 0.00 | 0.00 | 30 | 1000.4 |
| 20260504215004 | 25 | 220 | 4.8 | 16.1 | 0.00 | 0.00 | 0.00 | 30 | 1000.3 |
| 20260504214555 | 24 | 215 | 8.0 | 27.4 | 0.00 | 0.00 | 0.00 | 28 | 1001.7 |
| 20260504214504 | 25 | 209 | 9.7 | 27.4 | 0.00 | 0.00 | 0.00 | 30 | 1000.4 |
| 20260504213503 | 25 | 207 | 4.8 | 14.5 | 0.00 | 0.00 | 0.00 | 30 | 1000.4 |
| 20260504213107 | 25 | 276 | 8.0 | 22.5 | 0.00 | 0.00 | 0.00 | 29 | 1001.8 |
| 20260504213004 | 25 | 209 | 9.7 | 22.5 | 0.00 | 0.00 | 0.00 | 29 | 1000.5 |
| 20260504212503 | 25 | 202 | 8.0 | 16.1 | 0.00 | 0.00 | 0.00 | 30 | 1000.5 |
| 20260504212003 | 24 | 234 | 11.3 | 24.1 | 0.00 | 0.00 | 0.00 | 31 | 1000.5 |
| 20260504211551 | 24 | 199 | 8.0 | 20.9 | 0.00 | 0.00 | 0.00 | 31 | 1001.9 |
| 20260504211504 | 24 | 217 | 8.0 | 19.3 | 0.00 | 0.00 | 0.00 | 31 | 1000.5 |
| 20260504211004 | 25 | 236 | 9.7 | 20.9 | 0.00 | 0.00 | 0.00 | 29 | 1000.7 |
| 20260504210503 | 25 | 239 | 4.8 | 14.5 | 0.00 | 0.00 | 0.00 | 29 | 1000.9 |
| 20260504210048 | 25 | 264 | 4.8 | 22.5 | 0.00 | 0.00 | 0.00 | 30 | 1002.0 |
| 20260504205503 | 25 | 262 | 6.4 | 19.3 | 0.00 | 0.00 | 0.00 | 31 | 1000.8 |
| 20260504205003 | 25 | 247 | 12.9 | 29.0 | 0.00 | 0.00 | 0.00 | 30 | 1000.9 |
| 20260504204559 | 25 | 174 | 6.4 | 19.3 | 0.00 | 0.00 | 0.00 | 31 | 1002.2 |
| 20260504204503 | 25 | 248 | 8.0 | 19.3 | 0.00 | 0.00 | 0.00 | 32 | 1000.9 |
| 20260504204004 | 25 | 235 | 6.4 | 11.3 | 0.00 | 0.00 | 0.00 | 33 | 1001.0 |
| 20260504203504 | 24 | 284 | 8.0 | 20.9 | 0.00 | 0.00 | 0.00 | 31 | 1001.0 |
| 20260504203049 | 24 | 284 | 4.8 | 24.1 | 0.00 | 0.00 | 0.00 | 31 | 1002.3 |
| 20260504203003 | 25 | 224 | 4.8 | 19.3 | 0.00 | 0.00 | 0.00 | 31 | 1001.0 |
| 20260504202503 | 24 | 271 | 9.7 | 24.1 | 0.00 | 0.00 | 0.00 | 32 | 1001.1 |
| 20260504202004 | 25 | 250 | 11.3 | 20.9 | 0.00 | 0.00 | 0.00 | 31 | 1001.3 |
| 20260504201544 | 24 | 237 | 6.4 | 30.6 | 0.00 | 0.00 | 0.00 | 31 | 1002.5 |
| 20260504201503 | 24 | 243 | 6.4 | 24.1 | 0.00 | 0.00 | 0.00 | 32 | 1001.2 |
| 20260504201004 | 24 | 221 | 11.3 | 32.2 | 0.00 | 0.00 | 0.00 | 30 | 1001.4 |
| 20260504200503 | 24 | 208 | 9.7 | 25.7 | 0.00 | 0.00 | 0.00 | 32 | 1001.4 |
| 20260504200053 | 24 | 184 | 9.7 | 27.4 | 0.00 | 0.00 | 0.00 | 32 | 1002.7 |
| 20260504195504 | 24 | 229 | 9.7 | 27.4 | 0.00 | 0.00 | 0.00 | 32 | 1001.5 |
| 20260504195003 | 23 | 244 | 9.7 | 19.3 | 0.00 | 0.00 | 0.00 | 32 | 1001.5 |
| 20260504194549 | 23 | 228 | 9.7 | 27.4 | 0.00 | 0.00 | 0.00 | 32 | 1002.9 |
| 20260504194504 | 23 | 220 | 9.7 | 27.4 | 0.00 | 0.00 | 0.00 | 32 | 1001.8 |
| 20260504194004 | 25 | 240 | 8.0 | 24.1 | 0.00 | 0.00 | 0.00 | 32 | 1001.9 |
| 20260504193059 | 24 | 239 | 6.4 | 32.2 | 0.00 | 0.00 | 0.00 | 35 | 1003.0 |
| 20260504192504 | 23 | 278 | 9.7 | 32.2 | 0.00 | 0.00 | 0.00 | 35 | 1001.9 |
| 20260504192004 | 23 | 235 | 14.5 | 29.0 | 0.00 | 0.00 | 0.00 | 34 | 1002.1 |
| 20260504191548 | 23 | 204 | 12.9 | 20.9 | 0.00 | 0.00 | 0.00 | 31 | 1003.1 |
| 20260504191504 | 24 | 199 | 12.9 | 20.9 | 0.00 | 0.00 | 0.00 | 32 | 1002.0 |
| 20260504191004 | 23 | 198 | 6.4 | 20.9 | 0.00 | 0.00 | 0.00 | 36 | 1002.1 |
| 20260504190504 | 23 | 246 | 14.5 | 24.1 | 0.00 | 0.00 | 0.00 | 34 | 1002.2 |
| 20260504190053 | 24 | 201 | 8.0 | 27.4 | 0.00 | 0.00 | 0.00 | 35 | 1003.3 |
| 20260504190004 | 24 | 227 | 9.7 | 19.3 | 0.00 | 0.00 | 0.00 | 36 | 1002.2 |
| 20260504185504 | 23 | 267 | 8.0 | 27.4 | 0.00 | 0.00 | 0.00 | 36 | 1002.2 |
| 20260504185004 | 23 | 214 | 4.8 | 14.5 | 0.00 | 0.00 | 0.00 | 37 | 1002.2 |
| 20260504184544 | 22 | 209 | 8.0 | 27.4 | 0.00 | 0.00 | 0.00 | 36 | 1003.4 |
| 20260504184503 | 23 | 217 | 9.7 | 22.5 | 0.00 | 0.00 | 0.00 | 36 | 1002.3 |
| 20260504184004 | 23 | 223 | 12.9 | 27.4 | 0.00 | 0.00 | 0.00 | 38 | 1002.5 |
| 20260504183504 | 23 | 211 | 6.4 | 24.1 | 0.00 | 0.00 | 0.00 | 37 | 1002.5 |
| 20260504183055 | 23 | 274 | 9.7 | 17.7 | 0.00 | 0.00 | 0.00 | 38 | 1003.6 |
| 20260504183003 | 23 | 202 | 11.3 | 16.1 | 0.00 | 0.00 | 0.00 | 36 | 1002.6 |
| 20260504182503 | 23 | 206 | 4.8 | 12.9 | 0.00 | 0.00 | 0.00 | 38 | 1002.7 |
| 20260504182003 | 23 | 245 | 9.7 | 19.3 | 0.00 | 0.00 | 0.00 | 37 | 1002.7 |
| 20260504181546 | 23 | 271 | 4.8 | 22.5 | 0.00 | 0.00 | 0.00 | 37 | 1003.8 |
| 20260504181003 | 22 | 215 | 12.9 | 22.5 | 0.00 | 0.00 | 0.00 | 38 | 1002.8 |
| 20260504180504 | 22 | 220 | 12.9 | 29.0 | 0.00 | 0.00 | 0.00 | 37 | 1002.8 |
| 20260504180122 | 22 | 229 | 14.5 | 27.4 | 0.00 | 0.00 | 0.00 | 38 | 1003.9 |
| 20260504180004 | 22 | 231 | 16.1 | 27.4 | 0.00 | 0.00 | 0.00 | 38 | 1002.8 |
| 20260504175503 | 23 | 218 | 8.0 | 25.7 | 0.00 | 0.00 | 0.00 | 40 | 1002.9 |
| 20260504175004 | 23 | 217 | 8.0 | 22.5 | 0.00 | 0.00 | 0.00 | 40 | 1002.9 |
| 20260504174548 | 22 | 206 | 9.7 | 24.1 | 0.00 | 0.00 | 0.00 | 41 | 1004.0 |
| 20260504174504 | 22 | 238 | 11.3 | 22.5 | 0.00 | 0.00 | 0.00 | 40 | 1003.0 |
| 20260504174003 | 22 | 246 | 9.7 | 22.5 | 0.00 | 0.00 | 0.00 | 40 | 1003.0 |
| 20260504173503 | 22 | 225 | 8.0 | 19.3 | 0.00 | 0.00 | 0.00 | 41 | 1003.0 |
| 20260504173046 | 22 | 228 | 9.7 | 19.3 | 0.00 | 0.00 | 0.00 | 42 | 1004.2 |
| 20260504173003 | 22 | 219 | 9.7 | 19.3 | 0.00 | 0.00 | 0.00 | 40 | 1003.0 |
| 20260504172503 | 23 | 201 | 4.8 | 14.5 | 0.00 | 0.00 | 0.00 | 41 | 1003.0 |
| 20260504172004 | 21 | 209 | 6.4 | 24.1 | 0.00 | 0.00 | 0.00 | 43 | 1003.1 |
| 20260504171547 | 21 | 46 | 9.7 | 25.7 | 0.00 | 0.00 | 0.00 | 41 | 1004.2 |
| 20260504171504 | 21 | 259 | 9.7 | 25.7 | 0.00 | 0.00 | 0.00 | 40 | 1003.2 |
| 20260504171003 | 22 | 182 | 9.7 | 19.3 | 0.00 | 0.00 | 0.00 | 40 | 1003.2 |
| 20260504170503 | 22 | 231 | 6.4 | 19.3 | 0.00 | 0.00 | 0.00 | 43 | 1003.2 |
| 20260504151003 | 18 | 216 | 8.0 | 19.3 | 0.00 | 0.00 | 0.00 | 46 | 1004.2 |
| 20260504141004 | 17 | 232 | 9.7 | 19.3 | 0.00 | 0.00 | 0.00 | 47 | 1004.3 |
| 20260504140503 | 16 | 201 | 11.3 | 20.9 | 0.00 | 0.00 | 0.00 | 47 | 1004.3 |